Time,TemperatureF,DewpointF,PressureIn,WindDirection,WindDirectionDegrees,WindSpeedMPH,WindSpeedGustMPH,Humidity,HourlyPrecipIn,Conditions,Clouds,dailyrainin,SolarRadiationWatts/m^2,SoftwareType,DateUTC
2013-01-10 00:02:00,20.0,15.0,-100.00,South,191,2.0,2.0,82,0.00,,,0.00,0.000000,,2013-01-10 06:02:00,
2013-01-10 00:32:00,23.0,19.0,-100.00,SE,136,1.0,2.0,83,0.00,,,0.00,0.000000,,2013-01-10 06:32:00,
2013-01-10 00:42:00,23.0,19.0,-100.00,SE,136,1.0,2.0,83,0.00,,,0.00,0.000000,,2013-01-10 06:42:00,
2013-01-10 00:52:00,23.0,19.0,-100.00,SE,136,1.0,2.0,83,0.00,,,0.00,0.000000,,2013-01-10 06:52:00,
2013-01-10 01:02:00,23.0,19.0,-100.00,SE,136,1.0,2.0,83,0.00,,,0.00,0.000000,,2013-01-10 07:02:00,
2013-01-10 02:33:00,20.0,18.0,-100.00,East,100,1.0,0.0,90,-99.99,,,0.00,0.000000,,2013-01-10 08:33:00,
2013-01-10 02:42:00,20.0,18.0,-100.00,East,100,1.0,0.0,90,-99.99,,,0.00,0.000000,,2013-01-10 08:42:00,
2013-01-10 02:53:00,20.0,18.0,-100.00,East,100,1.0,0.0,90,-99.99,,,0.00,0.000000,,2013-01-10 08:53:00,
2013-01-10 03:02:00,20.0,18.0,-100.00,East,100,1.0,0.0,90,-99.99,,,0.00,0.000000,,2013-01-10 09:02:00,
2013-01-10 03:32:00,19.0,16.0,-100.00,West,279,0.0,0.0,89,0.00,,,0.00,0.000000,,2013-01-10 09:32:00,
2013-01-10 03:43:00,19.0,16.0,-100.00,West,279,0.0,0.0,89,0.00,,,0.00,0.000000,,2013-01-10 09:43:00,
2013-01-10 03:52:00,19.0,16.0,-100.00,West,279,0.0,0.0,89,0.00,,,0.00,0.000000,,2013-01-10 09:52:00,
2013-01-10 04:03:00,19.0,16.0,-100.00,West,279,0.0,0.0,89,0.00,,,0.00,0.000000,,2013-01-10 10:03:00,
2013-01-10 04:33:00,18.0,14.0,-100.00,SSW,200,2.0,3.0,85,0.00,,,0.00,0.000000,,2013-01-10 10:33:00,
2013-01-10 04:42:00,18.0,14.0,-100.00,SSW,200,2.0,3.0,85,0.00,,,0.00,0.000000,,2013-01-10 10:42:00,
2013-01-10 04:52:00,18.0,14.0,-100.00,SSW,200,2.0,3.0,85,0.00,,,0.00,0.000000,,2013-01-10 10:52:00,
2013-01-10 05:02:00,18.0,14.0,-100.00,SSW,200,2.0,3.0,85,0.00,,,0.00,0.000000,,2013-01-10 11:02:00,
2013-01-10 05:33:00,21.0,19.0,-100.00,East,100,2.0,2.0,90,0.00,,,0.00,0.000000,,2013-01-10 11:33:00,
2013-01-10 05:43:00,21.0,19.0,-100.00,East,100,2.0,2.0,90,0.00,,,0.00,0.000000,,2013-01-10 11:43:00,
2013-01-10 05:53:00,21.0,19.0,-100.00,East,100,2.0,2.0,90,0.00,,,0.00,0.000000,,2013-01-10 11:53:00,
2013-01-10 06:03:00,21.0,19.0,-100.00,East,100,2.0,2.0,90,0.00,,,0.00,0.000000,,2013-01-10 12:03:00,
2013-01-10 08:33:00,31.0,23.0,-100.00,ESE,115,6.0,9.0,72,-99.99,,,0.00,19.000000,,2013-01-10 14:33:00,
2013-01-10 08:43:00,31.0,23.0,-100.00,ESE,115,6.0,9.0,72,-99.99,,,0.00,19.000000,,2013-01-10 14:43:00,
2013-01-10 08:53:00,31.0,23.0,-100.00,ESE,115,6.0,9.0,72,-99.99,,,0.00,19.000000,,2013-01-10 14:53:00,
2013-01-10 09:03:00,31.0,23.0,-100.00,ESE,115,6.0,9.0,72,-99.99,,,0.00,19.000000,,2013-01-10 15:03:00,
2013-01-10 09:33:00,34.0,25.0,-100.00,ESE,118,9.0,12.0,70,0.00,,,0.00,110.000000,,2013-01-10 15:33:00,
2013-01-10 09:43:00,34.0,25.0,-100.00,ESE,118,9.0,12.0,70,0.00,,,0.00,110.000000,,2013-01-10 15:43:00,
2013-01-10 09:53:00,34.0,25.0,-100.00,ESE,118,9.0,12.0,70,0.00,,,0.00,110.000000,,2013-01-10 15:53:00,
2013-01-10 10:02:00,34.0,25.0,-100.00,ESE,118,9.0,12.0,70,0.00,,,0.00,110.000000,,2013-01-10 16:02:00,
2013-01-10 10:33:00,39.0,26.0,-100.00,SE,124,11.0,13.0,60,0.00,,,0.00,209.000000,,2013-01-10 16:33:00,
2013-01-10 10:43:00,39.0,26.0,-100.00,SE,124,11.0,13.0,60,0.00,,,0.00,209.000000,,2013-01-10 16:43:00,
2013-01-10 10:53:00,39.0,26.0,-100.00,SE,124,11.0,13.0,60,0.00,,,0.00,209.000000,,2013-01-10 16:53:00,
2013-01-10 11:03:00,39.0,26.0,-100.00,SE,124,11.0,13.0,60,0.00,,,0.00,209.000000,,2013-01-10 17:03:00,
2013-01-10 11:33:00,41.0,26.0,-100.00,ESE,120,11.0,15.0,54,0.00,,,0.00,227.000000,,2013-01-10 17:33:00,
2013-01-10 11:43:00,41.0,26.0,-100.00,ESE,120,11.0,15.0,54,0.00,,,0.00,227.000000,,2013-01-10 17:43:00,
2013-01-10 11:53:00,41.0,26.0,-100.00,ESE,120,11.0,15.0,54,0.00,,,0.00,227.000000,,2013-01-10 17:53:00,
2013-01-10 12:03:00,41.0,26.0,-100.00,ESE,120,11.0,15.0,54,0.00,,,0.00,227.000000,,2013-01-10 18:03:00,
2013-01-10 12:33:00,44.0,25.0,-100.00,SE,126,12.0,19.0,47,0.00,,,0.00,304.000000,,2013-01-10 18:33:00,
2013-01-10 12:43:00,44.0,25.0,-100.00,SE,126,12.0,19.0,47,0.00,,,0.00,304.000000,,2013-01-10 18:43:00,
2013-01-10 12:53:00,44.0,25.0,-100.00,SE,126,12.0,19.0,47,0.00,,,0.00,304.000000,,2013-01-10 18:53:00,
2013-01-10 13:03:00,44.0,25.0,-100.00,SE,126,12.0,19.0,47,0.00,,,0.00,304.000000,,2013-01-10 19:03:00,
2013-01-10 13:33:00,45.0,24.0,-100.00,SE,128,13.0,18.0,43,0.00,,,-99.99,207.000000,,2013-01-10 19:33:00,
2013-01-10 13:43:00,45.0,24.0,-100.00,SE,128,13.0,18.0,43,0.00,,,-99.99,207.000000,,2013-01-10 19:43:00,
2013-01-10 13:53:00,45.0,24.0,-100.00,SE,128,13.0,18.0,43,0.00,,,-99.99,207.000000,,2013-01-10 19:53:00,
2013-01-10 14:03:00,45.0,24.0,-100.00,SE,128,13.0,18.0,43,0.00,,,-99.99,207.000000,,2013-01-10 20:03:00,
2013-01-10 14:33:00,45.0,23.0,-100.00,SE,126,14.0,22.0,42,0.00,,,0.00,163.000000,,2013-01-10 20:33:00,
2013-01-10 14:43:00,45.0,23.0,-100.00,SE,126,14.0,22.0,42,0.00,,,0.00,163.000000,,2013-01-10 20:43:00,
2013-01-10 14:53:00,45.0,23.0,-100.00,SE,126,14.0,22.0,42,0.00,,,0.00,163.000000,,2013-01-10 20:53:00,
2013-01-10 15:33:00,43.0,26.0,-100.00,SE,126,15.0,20.0,51,0.00,,,0.00,62.000000,,2013-01-10 21:33:00,
2013-01-10 15:43:00,43.0,26.0,-100.00,SE,126,15.0,20.0,51,0.00,,,0.00,62.000000,,2013-01-10 21:43:00,
2013-01-10 15:53:00,43.0,26.0,-100.00,SE,126,15.0,20.0,51,0.00,,,0.00,62.000000,,2013-01-10 21:53:00,
2013-01-10 16:03:00,43.0,26.0,-100.00,SE,126,15.0,20.0,51,0.00,,,0.00,62.000000,,2013-01-10 22:03:00,
2013-01-10 16:34:00,40.0,31.0,-100.00,ESE,120,12.0,15.0,71,0.00,,,0.00,20.000000,,2013-01-10 22:34:00,
2013-01-10 16:44:00,40.0,31.0,-100.00,ESE,120,12.0,15.0,71,0.00,,,0.00,20.000000,,2013-01-10 22:44:00,
2013-01-10 17:02:00,40.0,31.0,-100.00,ESE,120,12.0,15.0,71,0.00,,,0.00,20.000000,,2013-01-10 23:02:00,
2013-01-10 17:33:00,38.0,34.0,-100.00,SE,126,13.0,16.0,86,0.04,,,0.04,2.000000,,2013-01-10 23:33:00,
2013-01-10 17:43:00,38.0,34.0,-100.00,SE,126,13.0,16.0,86,0.04,,,0.04,2.000000,,2013-01-10 23:43:00,
2013-01-10 17:53:00,38.0,34.0,-100.00,SE,126,13.0,16.0,86,0.04,,,0.04,2.000000,,2013-01-10 23:53:00,
2013-01-10 18:03:00,38.0,34.0,-100.00,SE,126,13.0,16.0,86,0.04,,,0.04,2.000000,,2013-01-11 00:03:00,
2013-01-10 18:33:00,37.0,35.0,-100.00,SE,127,12.0,16.0,93,0.01,,,0.05,0.000000,,2013-01-11 00:33:00,
2013-01-10 18:43:00,37.0,35.0,-100.00,SE,127,12.0,16.0,93,0.01,,,0.05,0.000000,,2013-01-11 00:43:00,
2013-01-10 18:53:00,37.0,35.0,-100.00,SE,127,12.0,16.0,93,0.01,,,0.05,0.000000,,2013-01-11 00:53:00,
2013-01-10 19:03:00,37.0,35.0,-100.00,SE,127,12.0,16.0,93,0.01,,,0.05,0.000000,,2013-01-11 01:03:00,
2013-01-10 19:34:00,38.0,37.0,-100.00,SE,124,10.0,15.0,96,0.00,,,0.05,0.000000,,2013-01-11 01:34:00,
2013-01-10 19:43:00,38.0,37.0,-100.00,SE,124,10.0,15.0,96,0.00,,,0.05,0.000000,,2013-01-11 01:43:00,
2013-01-10 19:53:00,38.0,37.0,-100.00,SE,124,10.0,15.0,96,0.00,,,0.05,0.000000,,2013-01-11 01:53:00,
2013-01-10 20:03:00,38.0,37.0,-100.00,SE,124,10.0,15.0,96,0.00,,,0.05,0.000000,,2013-01-11 02:03:00,
2013-01-10 20:33:00,39.0,38.0,-100.00,SE,125,11.0,13.0,97,0.02,,,-99.99,0.000000,,2013-01-11 02:33:00,
2013-01-10 20:44:00,39.0,38.0,-100.00,SE,125,11.0,13.0,97,0.02,,,-99.99,0.000000,,2013-01-11 02:44:00,
2013-01-10 20:54:00,39.0,38.0,-100.00,SE,125,11.0,13.0,97,0.02,,,-99.99,0.000000,,2013-01-11 02:54:00,
2013-01-10 21:02:00,39.0,38.0,-100.00,SE,125,11.0,13.0,97,0.02,,,-99.99,0.000000,,2013-01-11 03:02:00,
2013-01-10 21:33:00,39.0,38.0,-100.00,SE,133,10.0,13.0,98,0.21,,,0.28,0.000000,,2013-01-11 03:33:00,
2013-01-10 21:43:00,39.0,38.0,-100.00,SE,133,10.0,13.0,98,0.21,,,0.28,0.000000,,2013-01-11 03:43:00,
2013-01-10 21:53:00,39.0,38.0,-100.00,SE,133,10.0,13.0,98,0.21,,,0.28,0.000000,,2013-01-11 03:53:00,
2013-01-10 22:02:00,39.0,38.0,-100.00,SE,133,10.0,13.0,98,0.21,,,0.28,0.000000,,2013-01-11 04:02:00,
2013-01-10 22:33:00,40.0,39.0,-100.00,SE,134,12.0,18.0,98,0.08,,,0.36,0.000000,,2013-01-11 04:33:00,
2013-01-10 22:43:00,40.0,39.0,-100.00,SE,134,12.0,18.0,98,0.08,,,0.36,0.000000,,2013-01-11 04:43:00,
2013-01-10 22:53:00,40.0,39.0,-100.00,SE,134,12.0,18.0,98,0.08,,,0.36,0.000000,,2013-01-11 04:53:00,
2013-01-10 23:03:00,40.0,39.0,-100.00,SE,134,12.0,18.0,98,0.08,,,0.36,0.000000,,2013-01-11 05:03:00,
2013-01-10 23:33:00,41.0,41.0,-100.00,SE,135,10.0,12.0,99,0.07,,,0.43,0.000000,,2013-01-11 05:33:00,
2013-01-10 23:43:00,41.0,41.0,-100.00,SE,135,10.0,12.0,99,0.07,,,0.43,0.000000,,2013-01-11 05:43:00,
2013-01-10 23:53:00,41.0,41.0,-100.00,SE,135,10.0,12.0,99,0.07,,,0.43,0.000000,,2013-01-11 05:53:00,